This demonstration page uses our WeatherBlox Daily Observations layout. Learn more.

Left ArrowRight Arrow

39.01783, -85.05884

Hourly Observations for April 4, 2019

Temp ( °F °C ) Dew Point ( °F °C ) Humidity (%) Winds ( mph kmh ) Pressure ( in mb ) Visibility ( mi km ) Precip ( " mm )
12:52 am 00:52 Cloudy 53 11.7 30 -1.1 41 41 ENE 5 7 30.30 1026 10 16 N/A
1:52 am 01:52 Cloudy 51 10.6 31 -0.6 46 46 ENE 5 7 30.30 1026 10 16 N/A
2:52 am 02:52 Cloudy 51 10.6 30 -1.1 44 44 ENE 7 11 30.30 1026 10 16 N/A
3:52 am 03:52 Cloudy 50 10 31 -0.6 48 48 E 6 9 30.29 1026 10 16 N/A
4:52 am 04:52 Cloudy 50 10 29 -1.7 44 44 ESE 8 13 30.29 1026 10 16 N/A
5:52 am 05:52 Cloudy 50 10 28 -2.2 43 43 ESE 9 15 30.28 1026 10 16 N/A
6:52 am 06:52 Cloudy 50 10 28 -2.2 43 43 ESE 7 11 30.30 1026 10 16 N/A
7:52 am 07:52 Mostly Cloudy 49 9.4 31 -0.6 50 50 E 8 13 30.31 1026 10 16 N/A
8:52 am 08:52 Mostly Cloudy 51 10.6 29 -1.7 43 43 NE 12 19 30.32 1027 10 16 N/A
9:52 am 09:52 Mostly Cloudy 55 12.8 30 -1.1 38 38 ENE 12 19 30.31 1027 10 16 N/A
10:52 am 10:52 Mostly Cloudy 58 14.4 31 -0.6 36 36 ENE 15 24 30.30 1026 10 16 N/A
11:52 am 11:52 Mostly Cloudy 63 17.2 33 0.6 33 33 E 15 24 30.29 1026 10 16 N/A
12:52 pm 12:52 Mostly Cloudy 65 18.3 34 1.1 32 32 E 13 20 30.26 1025 10 16 N/A
1:52 pm 13:52 Mostly Cloudy 67 19.4 35 1.7 31 31 ENE 15 24 30.23 1024 10 16 N/A
2:52 pm 14:52 Mostly Cloudy 69 20.6 35 1.7 29 29 NE 18 30 30.20 1023 10 16 N/A
3:52 pm 15:52 Cloudy 70 21.1 35 1.7 28 28 NE 20 31 30.17 1022 10 16 N/A
4:52 pm 16:52 Cloudy 68 20 34 1.1 28 28 ENE 18 30 30.15 1021 10 16 N/A
5:52 pm 17:52 Cloudy 66 18.9 35 1.7 32 32 ENE 17 28 30.14 1021 10 16 N/A
6:52 pm 18:52 Cloudy 63 17.2 36 2.2 37 37 ENE 24 39 30.11 1020 10 16 N/A
7:52 pm 19:52 Cloudy 61 16.1 36 2.2 39 39 ENE 20 31 30.10 1019 10 16 N/A
8:52 pm 20:52 Cloudy 59 15 38 3.3 46 46 ENE 17 28 30.11 1020 10 16 N/A
9:52 pm 21:52 Cloudy 57 13.9 38 3.3 49 49 E 10 17 30.11 1020 10 16 N/A
10:52 pm 22:52 Cloudy 57 13.9 37 2.8 47 47 ENE 8 13 30.13 1020 10 16 N/A
11:52 pm 23:52 Cloudy 56 13.3 39 3.9 53 53 NNE 7 11 30.13 1020 10 16 N/A

Powered by AerisWeather